Location: Asheville, NC
(35.6000°N, 82.5500°W)
Time: 02:27:59
(UTC-04:00)

Vanguard 3 - Pass Details

Date: 08 March 2018
Orbit: 508 x 3264 km, 33.3° (Epoch: 20 June)

Event Time Altitude Azimuth Distance (km) Brightness Sun altitude
Rises 15:10:26 0° 280° (W) 5,217 11.7 36.6°
Reaches altitude 10° 15:14:43 10° 275° (W) 3,743 11.2 36.0°
Maximum altitude 15:23:04 47° 206° (SSW) 1,301 9.7 34.7°
Drops below altitude 10° 15:28:01 10° 132° (SE) 2,237 9.4 33.9°
Sets 15:30:01 0° 126° (SE) 2,969 9.9 33.5°
